Temperature
17 16 16 15 15 14 14 14 14 13 13 13 12 12 12 12 11 11 11 11 11 11 10 10 10 10 10 10 10 10 10 9 9 10 10 10 11 11 11 11 12 12 12
17 16 16 15 15 15 14 14 14 13 13 13 12 12 12 12 12 11 11 11 11 11 10 10 10 10 10 10 10 10 9 9 9 9 10 10 10 11 11 11 11 11 12
17 16 16 15 15 15 14 14 14 13 13 13 13 12 12 12 12 11 11 11 11 11 10 10 10 10 10 10 10 10 9 9 9 9 9 10 10 10 10 10 11 11 11
17 17 16 16 16 15 15 14 14 14 13 13 13 13 12 12 12 12 11 11 11 11 10 10 10 10 10 10 9 9 9 9 9 9 9 9 9 9 10 10 10 10 11
17 17 17 16 16 15 15 15 14 14 14 13 13 13 12 12 12 12 11 11 11 11 10 10 10 10 10 9 9 9 9 9 9 9 9 9 9 9 9 9 9 10 10
18 17 17 16 16 16 15 15 14 14 14 13 13 13 13 12 12 12 11 11 11 11 11 10 10 10 10 9 9 9 9 9 8 8 8 8 9 9 9 9 9 9 9
18 17 17 17 16 16 15 15 15 14 14 13 13 13 13 12 12 12 11 11 11 11 10 10 10 10 10 9 9 9 9 8 8 8 8 8 8 8 8 8 8 8 9
18 17 17 17 16 16 15 15 15 14 14 13 13 13 13 12 12 12 11 11 11 11 11 10 10 10 10 9 9 9 9 9 8 8 8 8 8 8 8 8 8 8 8
18 18 17 17 16 16 16 15 15 14 14 13 13 13 12 12 12 12 11 11 11 11 11 10 10 10 10 9 9 9 9 9 9 8 8 8 8 8 8 8 8 8 8
18 18 17 17 16 16 16 15 15 14 14 13 13 13 12 12 12 12 11 11 11 11 11 10 10 10 10 9 9 9 9 9 9 8 8 8 8 8 8 8 8 7 7
18 18 17 17 16 16 16 15 15 14 14 13 13 13 12 12 12 12 11 11 11 11 11 11 10 10 10 9 9 9 9 9 8 8 8 8 8 8 8 8 8 7 7
18 17 17 17 16 16 15 15 14 14 13 13 13 13 13 12 12 12 11 11 11 11 11 10 10 10 10 9 9 9 9 8 8 8 8 8 8 8 8 8 8 7 7
17 17 16 16 16 15 15 14 14 14 13 13 13 13 13 12 12 12 11 11 11 11 11 10 10 10 10 9 9 9 9 8 8 8 8 9 8 8 8 8 8 8 7
17 16 16 15 15 15 14 14 14 13 13 13 13 13 12 12 12 12 12 11 11 11 11 10 10 10 10 9 9 9 9 9 8 8 8 8 8 8 8 8 8 7 7
16 15 15 15 15 14 14 14 14 13 13 13 12 12 12 12 12 12 11 11 11 11 10 10 10 10 10 10 9 9 9 9 8 8 8 8 8 8 8 8 7 7 7
15 15 14 14 14 14 13 13 13 13 12 12 12 12 12 12 11 11 11 11 11 11 10 10 10 10 10 10 9 9 9 9 9 8 8 8 8 8 8 8 7 7 7
14 14 14 13 13 13 13 12 12 12 12 12 12 11 11 11 11 11 11 11 11 10 10 10 10 10 10 10 9 9 9 9 9 8 8 8 8 8 8 8 7 7 7
13 13 13 12 12 12 12 12 11 11 11 12 11 11 11 11 11 11 11 10 11 10 10 10 10 10 10 9 9 9 9 9 9 8 8 8 8 8 7 7 7 7 7
12 12 12 12 11 11 11 11 11 11 11 11 11 11 11 11 11 10 10 10 10 10 10 10 10 10 9 9 9 9 9 9 8 8 8 8 8 8 7 7 7 7 7
12 11 11 11 11 11 11 10 10 10 10 10 10 10 10 10 10 10 10 10 10 10 10 9 9 9 9 9 9 9 8 8 8 8 8 8 8 8 7 7 7 7 7
11 11 10 10 10 10 10 10 10 10 10 10 10 10 10 9 9 10 10 9 9 9 9 9 9 9 9 9 8 8 8 8 8 8 8 8 8 7 7 7 7 7 7
11 10 10 10 10 10 9 9 9 9 9 9 9 9 9 9 9 9 9 9 9 9 9 9 9 9 9 8 8 8 8 8 8 8 8 7 7 7 7 7 7 7 7
10 10 10 9 9 9 9 9 9 9 8 8 9 9 9 9 9 8 9 9 9 9 9 8 8 8 8 8 8 8 8 8 8 7 7 7 7 7 7 7 7 7 7
9 9 9 9 9 8 8 8 8 8 8 8 8 8 8 8 8 8 8 8 8 8 8 8 8 8 8 8 8 8 8 7 7 7 7 7 7 7 7 7 7 7 7
9 9 8 8 8 8 8 7 7 7 7 7 7 7 7 7 7 7 7 8 8 8 8 8 8 8 8 8 8 7 7 7 7 7 7 7 7 7 7 7 7 7 7
8 8 8 8 7 7 7 7 7 7 7 7 7 7 7 7 7 7 7 7 7 7 7 7 7 7 7 7 7 7 7 7 7 7 7 7 7 7 7 7 7 7 7
Wind_Speed
8 7 6 6 6 5 5 6 5 4 4 4 4 3 3 3 2 2 3 3 3 4 3 4 5 4 3 3 3 3 4 4 6 6 4 4 5 7 8 9 9 9 10
8 7 7 6 6 6 6 6 5 5 5 5 4 4 4 4 3 4 5 4 4 5 5 5 5 4 4 4 3 4 5 5 6 8 5 4 5 6 7 7 8 8 9
8 8 7 7 7 7 7 6 5 5 5 4 4 5 5 5 4 5 5 5 6 6 6 6 6 5 6 5 5 5 5 5 6 6 6 4 4 4 5 6 7 6 8
9 9 9 9 9 8 7 6 6 6 5 5 5 5 5 5 5 5 5 6 6 6 6 6 7 7 7 7 6 7 6 6 6 6 6 6 5 5 4 5 6 5 6
10 10 10 9 8 7 7 7 6 6 6 6 5 5 5 5 6 6 6 6 6 6 7 7 7 9 10 8 7 7 7 6 6 6 6 5 6 5 5 4 6 7 7
11 11 10 8 8 8 8 7 6 6 6 5 6 6 6 6 8 9 7 7 7 7 8 8 8 9 10 10 11 11 9 8 8 7 7 8 9 8 6 6 5 5 5
11 10 9 9 9 9 8 7 7 7 6 6 6 6 8 9 11 12 11 8 8 8 9 8 8 8 8 7 9 10 10 11 13 10 10 11 9 8 7 7 7 7 8
10 10 9 9 9 8 7 8 7 6 6 6 7 7 8 10 12 12 12 8 9 10 10 10 10 10 9 8 8 8 9 9 10 9 10 12 11 10 9 8 8 8 8
11 11 10 10 10 9 9 9 7 6 6 7 6 7 8 10 12 13 11 6 8 10 10 10 10 11 12 11 8 9 10 10 11 13 14 14 15 15 11 7 7 7 8
13 11 9 9 10 10 10 8 6 6 7 7 7 8 9 10 12 13 10 6 8 9 9 9 12 13 14 12 9 9 11 12 9 9 9 10 11 12 13 11 10 9 8
9 7 7 8 9 8 7 6 5 6 6 7 8 8 9 11 12 14 12 7 8 9 8 8 8 12 14 14 11 10 13 12 10 10 10 10 9 8 9 9 10 10 10
6 6 6 7 7 6 6 6 5 6 6 7 7 8 8 9 11 12 14 14 12 9 10 9 9 12 13 13 11 12 15 12 8 8 9 10 9 9 9 9 10 12 13
6 5 5 5 5 5 6 6 5 5 6 7 7 8 8 7 8 14 15 15 15 11 10 13 13 13 12 11 13 14 11 8 8 9 10 11 10 10 8 7 8 9 11
5 4 3 4 4 4 4 5 6 6 7 7 8 8 9 8 8 8 7 8 10 11 10 11 12 12 11 12 11 10 8 8 8 10 10 10 9 8 8 7 6 6 6
4 3 3 3 4 4 5 6 7 8 8 9 8 8 8 9 11 12 8 7 7 8 6 5 6 6 7 8 8 8 7 7 8 9 9 9 9 8 8 7 6 6 7
3 2 2 3 3 3 4 5 9 11 13 15 15 13 10 14 16 15 14 15 14 10 6 7 9 9 9 9 9 9 8 8 8 8 8 9 9 9 8 7 7 7 9
3 2 2 2 3 3 4 5 7 7 10 13 16 16 16 17 17 17 16 13 12 9 7 9 10 10 10 9 9 9 8 8 7 7 9 9 9 9 8 8 8 8 9
2 2 2 2 3 4 5 6 6 7 8 7 9 12 14 15 16 16 13 7 6 7 8 10 10 10 9 9 9 9 9 8 7 8 8 9 9 9 9 9 9 10 9
1 1 2 3 4 4 5 6 6 7 8 8 8 8 10 10 12 12 8 6 8 8 9 10 10 10 9 9 9 9 9 8 9 8 8 9 8 8 9 10 9 11 11
1 4 3 3 4 4 5 5 6 7 7 8 8 8 6 5 5 6 5 7 8 9 9 9 9 9 9 9 8 8 8 9 9 9 8 8 8 8 10 11 10 9 9
2 3 5 4 4 5 5 6 6 7 7 8 8 9 9 7 8 9 8 8 8 9 9 9 9 9 9 8 8 9 10 9 8 8 8 8 8 8 8 9 9 9 9
2 2 3 4 4 5 5 6 6 7 8 9 9 9 10 7 7 8 9 9 9 8 8 8 8 8 8 8 8 8 8 9 8 8 8 8 7 8 8 8 8 8 8
2 3 4 4 4 6 6 6 6 7 8 8 9 8 8 7 8 8 9 9 8 8 7 7 8 8 8 7 8 8 8 9 8 7 7 7 7 7 7 8 9 9 9
3 4 5 5 5 5 6 7 7 8 8 9 8 8 8 8 8 9 9 8 8 8 7 6 7 9 11 9 6 6 7 7 7 7 9 8 8 8 8 8 8 9 9
4 4 5 5 6 6 7 7 8 8 8 8 8 8 8 8 8 8 8 8 8 8 8 7 6 7 9 9 7 6 6 7 7 6 6 7 9 9 9 9 8 8 9
5 5 6 6 6 6 7 8 8 8 8 8 7 7 8 8 8 8 7 7 7 7 7 6 7 7 8 7 7 6 6 6 6 6 6 6 8 8 8 7 9 8 9
Wind_Direction
179 178 174 179 179 178 189 201 201 203 204 209 216 221 232 241 235 226 244 248 250 261 260 251 259 258 259 257 244 235 231 226 258 277 269 280 284 289 300 302 300 296 293
179 176 181 180 178 187 202 208 204 209 213 214 216 223 237 242 238 234 248 251 249 257 259 256 263 264 257 257 251 250 248 234 242 274 282 282 277 285 290 295 297 295 291
173 176 181 185 189 200 208 208 207 212 218 219 218 230 242 248 246 244 243 250 250 251 252 250 257 257 262 260 255 256 258 257 240 257 275 275 278 283 291 292 293 292 295
175 180 190 197 200 204 207 209 211 213 220 227 228 236 244 250 252 252 249 252 253 254 252 250 254 251 255 261 261 258 259 262 258 257 268 274 273 277 275 285 293 292 295
178 190 202 202 199 200 207 213 214 217 226 227 232 244 248 249 249 246 247 250 250 259 261 258 257 257 254 253 257 257 254 258 262 262 268 272 274 275 274 273 283 293 290
186 199 201 195 197 204 211 211 212 221 225 223 231 240 249 252 254 254 249 251 253 257 265 268 268 267 267 268 266 262 250 250 255 258 264 264 268 269 270 269 274 285 289
191 197 196 196 201 208 209 206 215 220 221 228 235 238 248 256 260 262 258 249 250 254 257 263 269 267 264 269 274 277 270 258 248 248 257 261 265 263 262 268 262 259 265
192 198 197 197 205 206 203 211 217 214 220 229 237 240 248 258 258 260 262 254 253 255 253 253 257 266 266 260 269 275 275 271 261 252 249 257 260 261 253 258 266 269 268
199 204 200 197 203 202 208 216 213 210 222 227 235 237 245 259 260 260 257 251 255 260 259 253 250 257 260 255 258 267 276 278 270 255 249 254 257 257 251 252 255 257 270
206 206 199 195 199 204 212 213 207 210 224 230 240 241 242 254 261 260 252 241 254 262 264 258 248 247 254 253 249 254 267 275 280 282 274 270 267 263 252 239 242 249 259
199 189 188 194 200 206 207 206 206 214 226 235 246 252 249 251 259 260 251 230 240 254 261 263 257 245 248 251 245 245 252 262 276 276 277 277 274 266 257 244 235 236 245
167 180 193 198 202 205 202 209 207 212 229 242 250 263 261 255 251 257 253 239 231 241 253 257 256 253 252 254 252 249 252 259 265 267 269 270 269 267 262 254 244 239 241
165 187 198 201 205 199 201 212 213 215 230 244 247 257 267 266 258 251 254 252 240 236 248 248 252 257 261 262 256 254 258 257 254 257 260 263 262 263 265 262 256 248 248
169 190 194 199 210 212 213 217 220 225 233 243 249 255 263 268 268 263 256 256 251 245 250 255 258 261 259 259 265 264 255 247 245 253 260 264 266 262 258 253 257 257 257
165 181 194 204 212 224 229 230 231 233 229 234 245 247 254 264 261 247 245 252 247 245 244 251 257 260 262 262 263 262 258 249 246 248 254 262 263 261 259 248 243 245 246
158 181 205 218 226 237 253 269 250 247 253 245 245 247 250 248 261 267 260 254 254 245 222 244 254 255 257 260 264 266 262 254 249 248 250 253 257 259 261 253 240 241 247
169 195 213 231 241 253 260 268 284 284 265 258 255 253 248 255 261 266 266 262 254 220 220 242 249 253 254 255 255 256 260 261 252 247 250 251 252 254 255 255 249 244 246
169 196 220 250 257 258 259 263 265 275 288 287 272 261 258 259 263 264 261 248 244 212 228 240 247 250 251 252 254 254 258 262 256 251 251 252 251 251 253 252 248 244 246
216 263 267 266 263 262 265 267 268 269 272 278 288 287 274 271 269 264 237 223 242 245 239 242 247 250 250 250 251 253 254 256 257 254 253 252 249 248 251 252 250 245 243
283 288 286 275 277 278 276 275 275 275 277 279 278 279 287 288 284 279 245 236 245 252 251 250 250 249 249 250 251 252 254 255 257 256 255 253 249 247 251 254 252 248 243
284 297 301 296 285 283 282 279 279 280 280 280 278 277 272 273 275 277 276 263 254 255 256 255 253 251 248 248 250 252 254 256 255 255 256 255 253 251 250 252 251 248 245
280 288 291 289 291 293 292 288 288 287 286 285 286 287 280 270 272 276 276 275 269 263 260 256 255 254 251 249 250 252 255 257 258 256 256 257 257 255 253 251 251 249 246
294 297 298 296 295 295 298 296 292 290 288 287 286 287 286 280 277 276 277 277 275 272 266 256 256 260 259 254 250 247 250 256 258 257 257 259 259 256 252 247 247 250 247
289 290 293 295 295 297 298 298 297 296 294 291 290 289 288 287 286 285 284 283 281 279 273 263 258 263 268 267 258 249 248 254 261 258 255 254 257 258 255 250 246 245 249
287 286 288 288 291 294 297 298 298 297 296 293 293 292 292 291 290 292 293 292 291 287 286 281 274 273 277 277 273 263 257 259 259 260 257 253 254 255 255 251 245 245 247
288 287 287 287 288 290 293 295 296 296 295 296 296 295 297 298 297 298 300 298 297 294 294 292 288 289 291 288 284 278 269 267 265 261 255 255 256 256 254 250 249 244 247
Height
1536 1538 1540 1541 1542 1543 1544 1544 1544 1544 1544 1544 1544 1543 1543 1543 1542 1541 1541 1540 1540 1539 1539 1538 1538 1537 1536 1536 1535 1534 1533 1532 1530 1528 1528 1527 1527 1526 1526 1525 1525 1524 1525
1534 1536 1538 1539 1540 1541 1542 1542 1542 1542 1542 1542 1542 1541 1541 1540 1540 1539 1538 1538 1537 1537 1536 1535 1534 1534 1533 1532 1531 1530 1529 1528 1526 1524 1523 1523 1522 1521 1521 1520 1520 1519 1519
1532 1533 1535 1536 1538 1538 1539 1540 1540 1540 1540 1540 1540 1539 1539 1538 1537 1536 1536 1535 1534 1533 1533 1532 1531 1530 1529 1528 1527 1526 1525 1524 1522 1520 1518 1518 1517 1517 1515 1515 1514 1514 1513
1528 1530 1532 1534 1535 1536 1537 1537 1537 1538 1538 1538 1537 1537 1536 1535 1534 1534 1533 1532 1531 1530 1529 1528 1527 1526 1524 1523 1522 1521 1520 1518 1517 1516 1514 1513 1512 1511 1510 1509 1508 1508 1507
1525 1527 1529 1531 1532 1533 1534 1534 1535 1535 1535 1535 1534 1534 1533 1532 1531 1530 1529 1528 1527 1526 1525 1524 1522 1521 1520 1518 1517 1516 1515 1513 1512 1511 1509 1508 1507 1506 1506 1504 1503 1502 1501
1520 1523 1525 1527 1528 1530 1531 1531 1531 1531 1531 1531 1531 1530 1529 1528 1528 1527 1526 1524 1523 1522 1521 1519 1518 1517 1515 1514 1512 1511 1510 1508 1507 1506 1504 1503 1502 1501 1500 1499 1498 1496 1495
1516 1519 1521 1523 1524 1526 1527 1527 1528 1528 1528 1527 1527 1526 1525 1525 1524 1523 1522 1520 1519 1518 1516 1515 1513 1512 1511 1509 1508 1506 1505 1504 1502 1501 1499 1498 1497 1496 1495 1494 1493 1491 1490
1512 1514 1517 1518 1520 1522 1523 1523 1524 1524 1524 1523 1523 1522 1521 1520 1520 1518 1517 1516 1514 1513 1512 1510 1509 1507 1506 1504 1502 1501 1500 1498 1497 1495 1494 1492 1491 1490 1489 1488 1487 1485 1484
1507 1510 1512 1514 1516 1517 1518 1519 1519 1519 1519 1519 1518 1518 1517 1516 1515 1514 1513 1511 1509 1508 1507 1505 1504 1502 1501 1499 1497 1495 1494 1492 1491 1489 1487 1486 1485 1484 1483 1482 1481 1479 1477
1502 1505 1507 1509 1511 1512 1513 1514 1515 1515 1515 1514 1514 1513 1512 1511 1510 1509 1508 1506 1504 1502 1501 1500 1498 1497 1495 1494 1492 1490 1487 1486 1485 1483 1481 1480 1479 1478 1477 1476 1474 1473 1471
1498 1501 1503 1505 1507 1508 1509 1509 1510 1510 1510 1509 1508 1508 1507 1506 1505 1504 1502 1500 1498 1497 1495 1494 1492 1491 1489 1488 1486 1484 1482 1480 1478 1476 1474 1472 1471 1470 1469 1468 1467 1466 1465
1495 1497 1499 1501 1502 1503 1504 1504 1505 1505 1504 1504 1503 1502 1501 1500 1499 1498 1497 1495 1493 1491 1489 1488 1486 1485 1483 1482 1480 1478 1476 1473 1471 1469 1467 1465 1464 1463 1462 1461 1460 1458 1457
1491 1493 1495 1497 1498 1498 1499 1499 1499 1499 1498 1498 1497 1496 1495 1494 1493 1492 1490 1489 1487 1484 1482 1481 1480 1478 1476 1475 1473 1471 1469 1467 1464 1462 1459 1458 1457 1456 1454 1453 1452 1451 1450
1487 1489 1491 1492 1493 1493 1494 1494 1493 1493 1492 1491 1490 1489 1488 1487 1486 1485 1483 1482 1480 1478 1476 1474 1473 1471 1469 1467 1466 1464 1462 1460 1457 1455 1452 1451 1449 1448 1447 1446 1445 1444 1443
1483 1485 1486 1487 1488 1488 1488 1488 1487 1487 1486 1485 1483 1482 1480 1479 1478 1478 1476 1474 1473 1471 1469 1467 1465 1464 1462 1460 1459 1457 1455 1453 1450 1448 1446 1444 1442 1441 1440 1439 1438 1437 1436
1480 1481 1482 1483 1483 1483 1483 1482 1481 1481 1480 1478 1477 1476 1473 1472 1471 1470 1468 1467 1465 1463 1461 1458 1457 1456 1454 1452 1451 1449 1447 1445 1443 1441 1439 1437 1435 1434 1433 1432 1431 1430 1429
1477 1478 1478 1478 1478 1477 1477 1476 1475 1474 1473 1472 1470 1468 1466 1465 1463 1462 1460 1458 1457 1455 1452 1450 1449 1447 1446 1444 1443 1441 1439 1438 1436 1434 1432 1430 1428 1427 1426 1425 1424 1423 1422
1474 1474 1474 1474 1473 1472 1471 1470 1469 1467 1465 1464 1463 1461 1459 1458 1456 1454 1452 1450 1448 1447 1444 1443 1441 1440 1438 1436 1435 1433 1432 1430 1429 1427 1425 1423 1422 1420 1419 1418 1417 1416 1415
1471 1470 1470 1469 1468 1467 1466 1465 1463 1461 1459 1457 1455 1454 1452 1450 1448 1447 1445 1442 1440 1439 1437 1435 1433 1432 1430 1428 1427 1426 1424 1423 1421 1420 1418 1416 1415 1413 1412 1411 1410 1409 1409
1468 1467 1466 1465 1464 1462 1461 1459 1457 1455 1452 1450 1448 1447 1445 1443 1441 1439 1437 1435 1432 1431 1429 1427 1425 1424 1422 1421 1419 1418 1417 1415 1414 1412 1411 1409 1408 1406 1405 1404 1403 1402 1401
1465 1463 1462 1461 1459 1458 1456 1453 1451 1449 1446 1443 1442 1440 1438 1436 1434 1432 1430 1427 1425 1423 1421 1419 1418 1416 1415 1413 1412 1411 1409 1408 1407 1405 1403 1402 1401 1399 1398 1397 1396 1395 1394
1462 1460 1458 1456 1454 1452 1450 1448 1445 1443 1440 1437 1435 1433 1431 1429 1427 1424 1422 1420 1418 1416 1414 1412 1410 1409 1408 1407 1405 1403 1402 1401 1399 1398 1396 1395 1394 1392 1391 1390 1389 1388 1388
1458 1456 1454 1452 1450 1447 1445 1442 1439 1437 1434 1432 1429 1427 1424 1422 1420 1417 1415 1413 1410 1408 1407 1405 1403 1402 1401 1400 1398 1397 1395 1394 1393 1391 1390 1388 1387 1385 1384 1383 1382 1382 1381
1454 1452 1450 1447 1445 1442 1439 1436 1434 1431 1428 1426 1423 1421 1418 1416 1413 1411 1408 1406 1404 1402 1400 1398 1397 1396 1394 1393 1391 1390 1389 1388 1386 1385 1383 1381 1380 1379 1377 1377 1376 1376 1376
1450 1447 1445 1442 1439 1436 1434 1431 1428 1425 1423 1420 1417 1415 1412 1409 1407 1404 1402 1399 1397 1396 1394 1392 1391 1389 1388 1386 1385 1384 1383 1381 1380 1378 1376 1375 1373 1372 1371 1370 1369 1370 1370
1445 1442 1440 1437 1434 1431 1428 1425 1422 1419 1417 1414 1411 1409 1406 1403 1400 1398 1396 1393 1391 1389 1388 1386 1384 1383 1381 1380 1379 1377 1376 1375 1373 1372 1370 1368 1367 1365 1365 1364 1364 1364 1365